Location: Strawberry
(45.6646°N, 111.9596°W)
Time: 17:00:01
(UTC+00:00)

RS-15 - Pass Details

Date: 01 December 2022
Orbit: 1883 x 2162 km, 64.8° (Epoch: 05 February)

Event Time Altitude Azimuth Distance (km) Brightness Sun altitude
Rises 01:28:10 0° 305° (NW) 5,694 11.1 -17.3°
Reaches altitude 10° 01:32:17 10° 315° (NW) 4,687 10.4 -18.0°
Maximum altitude 01:43:13 34° 17° (NNE) 3,096 8.8 -19.9°
Enters shadow 01:48:40 25° 59° (ENE) 3,532 8.8 -20.8°
